When you browse on this site, cookies collect data to enhance your experience and personalize the content and advertising you see.
Visit our Privacy Policy to learn more. By continuing to use the site, you agree to this use of cookies and data.
  • In Czech Republic
  • List of Countries
  • For 7 days
  • Water Temperature
  • Satellite Maps
  • Weather Map
  • Weather Widgets
  • user-avatar
    Login

    Hourly Weather Cioara

    Today, 25 May, Saturday

    Time Temperature Precipitation Wind Pressure Humidity
    00:00 +17°C° 0.4 mm 2 mps 751 mmHg 84%
    01:00 +16°C° 0.4 mm 2 mps 751 mmHg 87%
    02:00 +16°C° 0.4 mm 2 mps 751 mmHg 89%
    03:00 +16°C° 0.4 mm 2 mps 751 mmHg 91%
    04:00 +14°C° 0.4 mm 3 mps 751 mmHg 93%
    05:00 +14°C° 0.4 mm 3 mps 751 mmHg 94%
    06:00 +15°C° 0 mm 4 mps 751 mmHg 90%
    07:00 +17°C° 0 mm 5 mps 751 mmHg 86%
    08:00 +19°C° 0 mm 5 mps 751 mmHg 82%
    09:00 +20°C° 0.3 mm 6 mps 751 mmHg 78%
    10:00 +21°C° 0.3 mm 6 mps 751 mmHg 74%
    11:00 +22°C° 0.3 mm 6 mps 752 mmHg 70%
    12:00 +23°C° 0.1 mm 6 mps 751 mmHg 65%
    13:00 +25°C° 0.1 mm 5 mps 751 mmHg 60%
    14:00 +26°C° 0.1 mm 5 mps 751 mmHg 55%
    15:00 +26°C° 0.2 mm 5 mps 751 mmHg 56%
    16:00 +26°C° 0.2 mm 5 mps 751 mmHg 57%
    17:00 +25°C° 0.2 mm 5 mps 751 mmHg 58%
    18:00 +23°C° 0.1 mm 4 mps 751 mmHg 66%
    19:00 +21°C° 0.1 mm 4 mps 752 mmHg 73%
    20:00 +19°C° 0.1 mm 3 mps 752 mmHg 80%
    21:00 +19°C° 0.1 mm 3 mps 752 mmHg 83%
    22:00 +18°C° 0.1 mm 3 mps 753 mmHg 85%
    23:00 +18°C° 0.1 mm 4 mps 753 mmHg 88%

    Tomorrow, 26 May, Sunday

    Time Temperature Precipitation Wind Pressure Humidity
    00:00 +17°C° 0 mm 4 mps 754 mmHg 89%
    01:00 +17°C° 0 mm 4 mps 754 mmHg 90%
    02:00 +15°C° 0 mm 4 mps 754 mmHg 91%
    03:00 +15°C° 0 mm 4 mps 754 mmHg 91%
    04:00 +16°C° 0 mm 3 mps 755 mmHg 92%
    05:00 +16°C° 0 mm 3 mps 755 mmHg 93%
    06:00 +17°C° 0 mm 4 mps 755 mmHg 86%
    07:00 +19°C° 0 mm 4 mps 755 mmHg 80%
    08:00 +20°C° 0 mm 5 mps 756 mmHg 74%
    09:00 +22°C° 0 mm 5 mps 756 mmHg 67%
    10:00 +23°C° 0 mm 5 mps 756 mmHg 60%
    11:00 +25°C° 0 mm 4 mps 756 mmHg 54%
    12:00 +26°C° 0 mm 4 mps 756 mmHg 51%
    13:00 +26°C° 0 mm 4 mps 756 mmHg 47%
    14:00 +27°C° 0 mm 4 mps 756 mmHg 44%
    15:00 +27°C° 0 mm 3 mps 756 mmHg 45%
    16:00 +27°C° 0 mm 3 mps 756 mmHg 45%
    17:00 +27°C° 0 mm 2 mps 755 mmHg 45%
    18:00 +25°C° 0 mm 2 mps 756 mmHg 50%
    19:00 +23°C° 0 mm 1 mps 756 mmHg 55%
    20:00 +20°C° 0 mm 0 mps 756 mmHg 59%
    21:00 +21°C° 0 mm 1 mps 756 mmHg 60%
    22:00 +21°C° 0 mm 1 mps 757 mmHg 62%
    23:00 +20°C° 0 mm 2 mps 757 mmHg 63%

    Day after tomorrow, 27 May, Monday

    Time Temperature Precipitation Wind Pressure Humidity
    00:00 +19°C° 0 mm 2 mps 757 mmHg 65%
    01:00 +19°C° 0 mm 2 mps 757 mmHg 68%
    02:00 +18°C° 0 mm 2 mps 757 mmHg 71%
    03:00 +18°C° 0 mm 2 mps 757 mmHg 73%
    04:00 +18°C° 0 mm 2 mps 757 mmHg 76%
    05:00 +17°C° 0 mm 2 mps 757 mmHg 78%
    06:00 +20°C° 0 mm 2 mps 757 mmHg 74%
    07:00 +22°C° 0 mm 3 mps 757 mmHg 69%
    08:00 +25°C° 0 mm 3 mps 757 mmHg 65%
    09:00 +26°C° 0 mm 4 mps 757 mmHg 60%
    10:00 +27°C° 0 mm 5 mps 757 mmHg 55%
    11:00 +29°C° 0 mm 6 mps 757 mmHg 50%
    12:00 +29°C° 0 mm 6 mps 757 mmHg 48%
    13:00 +30°C° 0 mm 6 mps 757 mmHg 46%
    14:00 +30°C° 0 mm 6 mps 756 mmHg 44%
    15:00 +30°C° 0 mm 6 mps 756 mmHg 45%
    16:00 +30°C° 0 mm 6 mps 756 mmHg 46%
    17:00 +30°C° 0 mm 6 mps 756 mmHg 47%
    18:00 +28°C° 0 mm 6 mps 756 mmHg 50%
    19:00 +26°C° 0 mm 6 mps 756 mmHg 53%
    20:00 +23°C° 0 mm 6 mps 756 mmHg 56%
    21:00 +22°C° 0 mm 5 mps 756 mmHg 58%
    22:00 +21°C° 0 mm 5 mps 756 mmHg 60%
    23:00 +20°C° 0 mm 5 mps 757 mmHg 62%

    28 May, Tuesday

    Time Temperature Precipitation Wind Pressure Humidity
    00:00 +19°C° 0 mm 5 mps 757 mmHg 66%
    01:00 +18°C° 0 mm 4 mps 757 mmHg 70%
    02:00 +17°C° 0 mm 4 mps 757 mmHg 74%
    03:00 +17°C° 0 mm 4 mps 756 mmHg 77%
    04:00 +15°C° 0 mm 4 mps 756 mmHg 81%
    05:00 +15°C° 0 mm 4 mps 756 mmHg 84%
    06:00 +18°C° 0 mm 4 mps 756 mmHg 77%
    07:00 +20°C° 0 mm 5 mps 756 mmHg 71%
    08:00 +21°C° 0 mm 6 mps 756 mmHg 64%
    09:00 +23°C° 0 mm 7 mps 756 mmHg 57%
    10:00 +26°C° 0 mm 7 mps 756 mmHg 51%
    11:00 +28°C° 0 mm 8 mps 755 mmHg 44%
    12:00 +28°C° 0 mm 8 mps 755 mmHg 43%
    13:00 +29°C° 0 mm 9 mps 755 mmHg 42%
    14:00 +31°C° 0 mm 9 mps 754 mmHg 41%
    15:00 +29°C° 0 mm 9 mps 754 mmHg 44%
    16:00 +28°C° 0 mm 8 mps 753 mmHg 48%
    17:00 +28°C° 0 mm 8 mps 753 mmHg 51%
    18:00 +26°C° 0 mm 7 mps 753 mmHg 57%
    19:00 +23°C° 0 mm 7 mps 753 mmHg 62%
    20:00 +21°C° 0 mm 6 mps 753 mmHg 67%
    21:00 +20°C° 0 mm 6 mps 753 mmHg 71%
    22:00 +20°C° 0 mm 5 mps 753 mmHg 74%
    23:00 +19°C° 0 mm 5 mps 753 mmHg 77%

    29 May, Wednesday

    Time Temperature Precipitation Wind Pressure Humidity
    00:00 +18°C° 0 mm 4 mps 753 mmHg 80%
    01:00 +18°C° 0 mm 4 mps 753 mmHg 83%
    02:00 +17°C° 0 mm 4 mps 753 mmHg 86%
    03:00 +17°C° 0 mm 3 mps 753 mmHg 87%
    04:00 +17°C° 0 mm 3 mps 753 mmHg 88%
    05:00 +16°C° 0 mm 3 mps 753 mmHg 88%
    06:00 +18°C° 0 mm 4 mps 753 mmHg 83%
    07:00 +20°C° 0 mm 4 mps 753 mmHg 77%
    08:00 +22°C° 0 mm 5 mps 753 mmHg 71%
    09:00 +25°C° 0 mm 5 mps 753 mmHg 65%
    10:00 +27°C° 0 mm 6 mps 753 mmHg 58%
    11:00 +29°C° 0 mm 6 mps 753 mmHg 52%
    12:00 +30°C° 0 mm 5 mps 753 mmHg 49%
    13:00 +32°C° 0 mm 5 mps 753 mmHg 45%
    14:00 +33°C° 0 mm 5 mps 753 mmHg 42%
    15:00 +33°C° 0 mm 4 mps 753 mmHg 42%
    16:00 +33°C° 0 mm 3 mps 753 mmHg 42%
    17:00 +32°C° 0 mm 2 mps 753 mmHg 43%
    18:00 +30°C° 0 mm 2 mps 753 mmHg 49%
    19:00 +28°C° 0 mm 2 mps 753 mmHg 55%
    20:00 +26°C° 0 mm 2 mps 754 mmHg 62%
    21:00 +24°C° 0.1 mm 2 mps 754 mmHg 67%
    22:00 +23°C° 0.1 mm 1 mps 755 mmHg 72%
    23:00 +22°C° 0.1 mm 1 mps 755 mmHg 76%

    30 May, Thursday

    Time Temperature Precipitation Wind Pressure Humidity
    00:00 +21°C° 0.1 mm 3 mps 755 mmHg 79%
    01:00 +21°C° 0.1 mm 4 mps 756 mmHg 81%
    02:00 +20°C° 0.1 mm 6 mps 756 mmHg 84%
    03:00 +20°C° 0.1 mm 6 mps 756 mmHg 86%
    04:00 +20°C° 0.1 mm 7 mps 757 mmHg 88%
    05:00 +18°C° 0.1 mm 7 mps 757 mmHg 91%
    06:00 +20°C° 0 mm 7 mps 757 mmHg 88%
    07:00 +20°C° 0 mm 7 mps 758 mmHg 86%
    08:00 +20°C° 0 mm 7 mps 758 mmHg 84%
    09:00 +21°C° 0 mm 7 mps 758 mmHg 83%
    10:00 +21°C° 0 mm 6 mps 758 mmHg 81%
    11:00 +21°C° 0 mm 6 mps 759 mmHg 79%
    12:00 +22°C° 0 mm 6 mps 758 mmHg 76%
    13:00 +23°C° 0 mm 6 mps 758 mmHg 72%
    14:00 +24°C° 0 mm 6 mps 758 mmHg 69%
    15:00 +25°C° 0 mm 5 mps 758 mmHg 68%
    16:00 +25°C° 0 mm 5 mps 758 mmHg 68%
    17:00 +25°C° 0 mm 5 mps 758 mmHg 67%
    18:00 +23°C° 0 mm 5 mps 758 mmHg 73%
    19:00 +21°C° 0 mm 4 mps 758 mmHg 79%
    20:00 +20°C° 0 mm 3 mps 759 mmHg 84%
    21:00 +19°C° 0 mm 3 mps 759 mmHg 87%
    22:00 +18°C° 0 mm 3 mps 759 mmHg 90%
    23:00 +17°C° 0 mm 3 mps 759 mmHg 93%
    Show more